Date String (YYYY-MM-DD hh:mm:ss) UTC,Instrument flags,Ambient pressure (hPa),Sample flow (lpm),Bypass flow (lpm),Sample temperature (°C),Ambient temperature (°C),ASC tube jacket temperature (°C),LED temperature (°C),Box temperature (°C),Sample RH (%),Span deviation,Mass concentration (μg/m³),Mass concentration (μg/m³),Mass concentration (μg/m³)
DateTimeUTC,F1_M11,P_M11,Q1_M11,Q2_M11,T1_M11,T2_M11,T3_M11,T4_M11,T5_M11,U1_M11,ZSPAN_M11,X0_M11,X2_M11,X1_M11
2021-12-03 18:00:00,,0829.3,4.99,0.00,27.8,27.1,00.0,36.6,29.6,14.3,0000.0,0011.53,0002.86,0001.75
2021-12-03 18:01:00,,0829.3,5.01,0.00,27.8,27.1,00.0,36.7,29.7,14.4,0000.0,0012.52,0002.87,0001.76
2021-12-03 18:02:00,,0829.2,4.98,0.00,27.8,27.1,00.0,36.7,29.7,14.3,0000.0,0012.63,0002.88,0001.77
2021-12-03 18:03:00,,0829.3,5.02,0.00,27.8,27.1,00.0,36.7,29.7,14.3,0000.0,0011.77,0002.86,0001.77
2021-12-03 18:04:00,,0829.3,5.00,0.00,27.9,27.1,00.0,36.7,29.7,14.2,0000.0,0011.11,0002.82,0001.75
2021-12-03 18:05:00,,0829.3,5.00,0.00,27.9,27.1,00.0,36.7,29.7,14.1,0000.0,0012.38,0002.78,0001.73
2021-12-03 18:06:00,,0829.2,5.00,0.00,27.9,27.1,00.0,36.7,29.7,14.0,0000.0,0012.40,0002.75,0001.72
2021-12-03 18:07:00,,0829.2,4.99,0.00,27.9,27.1,00.0,36.7,29.7,14.0,0000.0,0011.91,0002.73,0001.69
2021-12-03 18:08:00,,0829.1,5.01,0.00,27.9,27.1,00.0,36.8,29.7,14.0,0000.0,0012.55,0002.78,0001.69
2021-12-03 18:09:00,,0829.1,5.00,0.00,27.9,27.1,00.0,36.8,29.7,14.0,0000.0,0012.24,0002.77,0001.70
2021-12-03 18:10:00,,0829.1,4.99,0.00,27.9,27.1,00.0,36.8,29.7,13.8,0000.0,0011.65,0002.73,0001.70
2021-12-03 18:11:00,,0829.1,5.01,0.00,27.9,27.1,00.0,36.8,29.7,13.6,0000.0,0011.68,0002.74,0001.72
2021-12-03 18:12:00,,0829.1,4.99,0.00,27.9,27.1,00.0,36.8,29.7,13.5,0000.0,0011.17,0002.75,0001.74
2021-12-03 18:13:00,,0829.0,5.00,0.00,27.9,27.1,00.0,36.8,29.7,13.6,0000.0,0010.14,0002.69,0001.75
2021-12-03 18:14:00,,0829.0,5.01,0.00,27.9,27.1,00.0,36.8,29.7,13.6,0000.0,0009.67,0002.70,0001.74
2021-12-03 18:15:00,,0828.9,4.99,0.00,27.9,27.1,00.0,36.8,29.7,13.5,0000.0,0009.66,0002.78,0001.75
2021-12-03 18:16:00,,0828.9,5.00,0.00,27.9,27.1,00.0,36.8,29.7,13.5,0000.0,0008.68,0002.82,0001.78
2021-12-03 18:17:00,,0828.8,4.99,0.00,27.9,27.2,00.0,36.8,29.7,13.6,0000.0,0008.80,0002.83,0001.81
2021-12-03 18:18:00,,0828.8,5.02,0.00,28.0,27.2,00.0,36.8,29.7,13.6,0000.0,0008.85,0002.83,0001.82
2021-12-03 18:19:00,,0829.1,4.98,0.00,28.0,27.2,00.0,36.8,29.8,13.6,0000.0,0008.11,0002.85,0001.85
2021-12-03 18:20:00,,0829.3,5.01,0.00,28.0,27.3,00.0,36.9,29.8,13.5,0000.0,0008.03,0002.82,0001.85
2021-12-03 18:21:00,,0829.2,4.99,0.00,28.0,27.3,00.0,36.9,29.8,13.1,0000.0,0007.90,0002.83,0001.85
2021-12-03 18:22:00,,0829.0,5.01,0.00,28.0,27.3,00.0,36.9,29.9,13.1,0000.0,0007.67,0002.84,0001.85
2021-12-03 18:23:00,,0828.8,5.01,0.00,28.0,27.3,00.0,36.9,29.8,13.1,0000.0,0007.60,0002.86,0001.87
2021-12-03 18:24:00,,0828.7,4.98,0.00,28.1,27.3,00.0,36.9,29.8,13.0,0000.0,0007.50,0002.95,0001.89
2021-12-03 18:25:00,,0828.7,5.01,0.00,28.1,27.3,00.0,36.9,29.9,13.0,0000.0,0007.48,0002.99,0001.93
2021-12-03 18:26:00,,0829.1,4.99,0.00,28.1,27.3,00.0,37.0,29.9,13.0,0000.0,0007.44,0003.00,0001.96
2021-12-03 18:27:00,,0829.2,5.01,0.00,28.1,27.4,00.0,37.0,29.9,12.7,0000.0,0007.24,0003.01,0002.00
2021-12-03 18:28:00,,0828.7,4.99,0.00,28.1,27.4,00.0,37.0,29.9,12.8,0000.0,0006.96,0003.04,0002.05
2021-12-03 18:29:00,,0829.0,5.01,0.00,28.1,27.4,00.0,37.0,29.9,12.8,0000.0,0007.17,0003.09,0002.09
2021-12-03 18:30:00,,0828.9,5.00,0.00,28.1,27.4,00.0,37.0,29.9,12.7,0000.0,0007.10,0003.13,0002.13
2021-12-03 18:31:00,,0828.8,5.00,0.00,28.2,27.4,00.0,37.0,29.9,12.7,0000.0,0007.54,0003.23,0002.21
2021-12-03 18:32:00,,0828.5,5.00,0.00,28.2,27.4,00.0,37.0,30.0,12.5,0000.0,0008.05,0003.29,0002.28
2021-12-03 18:33:00,,0828.6,5.02,0.00,28.2,27.4,00.0,37.1,30.0,12.5,0000.0,0008.07,0003.34,0002.36
2021-12-03 18:34:00,,0828.5,4.98,0.00,28.2,27.4,00.0,37.1,30.0,12.6,0000.0,0008.19,0003.40,0002.42
2021-12-03 18:35:00,,0828.5,5.01,0.00,28.2,27.4,00.0,37.1,30.0,12.7,0000.0,0008.32,0003.44,0002.48
2021-12-03 18:36:00,,0828.5,4.98,0.00,28.2,27.4,00.0,37.1,30.0,12.5,0000.0,0009.16,0003.49,0002.55
2021-12-03 18:37:00,,0828.5,5.00,0.00,28.2,27.5,00.0,37.1,30.0,12.3,0000.0,0010.41,0003.57,0002.61
2021-12-03 18:38:00,,0828.5,5.00,0.00,28.2,27.5,00.0,37.1,30.0,12.4,0000.0,0011.42,0003.65,0002.68
2021-12-03 18:39:00,,0828.5,5.00,0.00,28.2,27.5,00.0,37.1,30.0,12.5,0000.0,0011.55,0003.68,0002.73
2021-12-03 18:40:00,,0828.5,4.99,0.00,28.3,27.5,00.0,37.1,30.0,12.4,0000.0,0012.22,0003.74,0002.78
2021-12-03 18:41:00,,0828.4,5.00,0.00,28.3,27.5,00.0,37.2,30.1,12.4,0000.0,0012.45,0003.82,0002.85
2021-12-03 18:42:00,,0828.4,5.00,0.00,28.3,27.5,00.0,37.2,30.1,12.4,0000.0,0012.53,0003.91,0002.89
2021-12-03 18:43:00,,0828.3,5.01,0.00,28.3,27.5,00.0,37.2,30.1,12.3,0000.0,0012.15,0003.97,0002.91
2021-12-03 18:44:00,,0828.3,4.99,0.00,28.3,27.5,00.0,37.2,30.1,12.4,0000.0,0012.41,0004.03,0002.93
2021-12-03 18:45:00,,0828.4,5.01,0.00,28.3,27.5,00.0,37.2,30.0,12.4,0000.0,0013.34,0004.08,0002.94
2021-12-03 18:46:00,,0828.3,5.01,0.00,28.3,27.5,00.0,37.2,30.0,12.2,0000.0,0013.79,0004.14,0002.96
2021-12-03 18:47:00,,0828.3,4.99,0.00,28.3,27.5,00.0,37.2,30.0,12.3,0000.0,0013.12,0004.15,0002.98
2021-12-03 18:48:00,,0828.2,5.00,0.00,28.3,27.5,00.0,37.2,30.1,12.6,0000.0,0012.51,0004.13,0002.98
2021-12-03 18:49:00,,0828.3,5.02,0.00,28.3,27.5,00.0,37.2,30.0,12.7,0000.0,0012.24,0004.11,0002.95
2021-12-03 18:50:00,,0828.3,4.99,0.00,28.3,27.5,00.0,37.2,30.0,12.7,0000.0,0012.85,0004.15,0002.93
2021-12-03 18:51:00,,0828.2,5.02,0.00,28.3,27.5,00.0,37.2,30.0,12.7,0000.0,0013.03,0004.15,0002.93
2021-12-03 18:52:00,,0828.2,4.99,0.00,28.3,27.5,00.0,37.2,30.1,12.5,0000.0,0013.27,0004.15,0002.92
2021-12-03 18:53:00,,0828.1,5.02,0.00,28.3,27.5,00.0,37.2,30.0,12.3,0000.0,0013.60,0004.13,0002.95
2021-12-03 18:54:00,,0828.1,4.99,0.00,28.3,27.5,00.0,37.2,30.0,12.5,0000.0,0014.35,0004.12,0002.96
2021-12-03 18:55:00,,0828.1,5.00,0.00,28.3,27.5,00.0,37.3,30.0,12.6,0000.0,0014.22,0004.09,0002.96
2021-12-03 18:56:00,,0828.1,5.01,0.00,28.3,27.5,00.0,37.3,30.0,12.5,0000.0,0013.88,0004.09,0002.96
2021-12-03 18:57:00,,0828.1,4.98,0.00,28.3,27.5,00.0,37.3,30.0,12.6,0000.0,0013.36,0004.06,0002.95
2021-12-03 18:58:00,,0828.1,5.01,0.00,28.3,27.5,00.0,37.3,30.0,12.6,0000.0,0014.11,0004.06,0002.93
2021-12-03 18:59:00,,0828.1,5.00,0.00,28.3,27.5,00.0,37.3,30.0,12.5,0000.0,0014.63,0004.10,0002.92
